Weather History for EINN - February, 2012

Change the Weather History Date:

Friday, February 17, 2012

  Actual Average Record
Temperature  
Mean Temperature 48 °F -  
Max Temperature 51 °F 49 °F 53 °F (1997)
Min Temperature 46 °F 38 °F 32 °F (2001)
Degree Days  
Heating Degree Days 16    
Moisture  
Dew Point 49 °F    
Average Humidity 97    
Maximum Humidity 100    
Minimum Humidity 87    
Precipitation  
Precipitation 0.08 in 0.09 in - ()
Sea Level Pressure  
Sea Level Pressure 30.18 in    
Wind  
Wind Speed 15 mph ()    
Max Wind Speed 29 mph    
Max Gust Speed 32 mph    
Visibility 2.9 miles    
Events Rain    
Averages and records for this station are not official NWS values.
T = Trace of Precipitation, MM = Missing Value Source: Averaged Metar Reports

Daily Weather History Graph

Daily Weather History Graph

Search for Another Location

Airport or City:

Trip Planner

Search our weather history database for the weather conditions in past years. The results will help you decide how hot, cold, wet, or windy it might be!

Date:

Astronomy

Feb. 17, 2012 Rise Set
Actual Time 7:49 AM GMT 5:50 PM GMT
Civil Twilight 7:14 AM GMT 6:26 PM GMT
Nautical Twilight 6:34 AM GMT 7:06 PM GMT
Astronomical Twilight 5:54 AM GMT 7:45 PM GMT
Moon 4:56 AM GMT (2/17) 1:02 PM GMT (2/17)
Length of Visible Light 11h 12m
Length of Day
10h 01m
Waning Crescent, 21% of the Moon is Illuminated
Feb 17
Waning Crescent
Feb 21
New
Mar 1
First Quarter
Mar 8
Full
Mar 15
Last Quarter

Hourly Weather History & Observations

Time (GMT) Temp. Windchill Dew Point Humidity Pressure Visibility Wind Dir Wind Speed Gust Speed Precip Events Conditions
12:00 AM 49 °F - 49 °F 100% 30.35 in 2 mi WSW 15.7 mph - - Rain Light Rain
12:00 AM 50.0 °F - 48.2 °F 94% 30.33 in 1.6 mi WSW 15.0 mph - N/A   Light Drizzle
12:30 AM 50.0 °F - 48.2 °F 94% 30.33 in 1.9 mi WSW 15.0 mph - N/A   Light Drizzle
1:00 AM 50.0 °F - 50.0 °F 100% 30.33 in 2.2 mi WSW 13.8 mph - N/A   Light Drizzle
1:30 AM 50.0 °F - 50.0 °F 100% 30.30 in 1.9 mi WSW 13.8 mph - N/A   Light Drizzle
2:00 AM 50.0 °F - 50.0 °F 100% 30.30 in 1.6 mi WSW 13.8 mph - N/A   Light Drizzle
2:30 AM 50.0 °F - 50.0 °F 100% 30.30 in 1.9 mi WSW 13.8 mph - N/A   Light Drizzle
3:00 AM 50.0 °F - 50.0 °F 100% 30.30 in 1.6 mi WSW 15.0 mph - N/A   Light Drizzle
3:30 AM 50.0 °F - 50.0 °F 100% 30.30 in 1.6 mi WSW 15.0 mph - N/A   Light Drizzle
4:00 AM 50.0 °F - 50.0 °F 100% 30.27 in 1.9 mi WSW 16.1 mph - N/A   Light Drizzle
4:30 AM 50.0 °F - 50.0 °F 100% 30.27 in - North - - N/A   Light Drizzle
5:00 AM 50.0 °F - 50.0 °F 100% 30.27 in 2.2 mi WSW 18.4 mph - N/A   Light Drizzle
5:30 AM 50.0 °F - 50.0 °F 100% 30.27 in 2.5 mi WSW 18.4 mph - N/A   Light Drizzle
6:00 AM 49 °F - 49 °F 100% 30.27 in 2 mi WSW 17.9 mph - - Rain Light Drizzle
6:00 AM 50.0 °F - 50.0 °F 100% 30.27 in 2.5 mi WSW 17.3 mph - N/A   Light Drizzle
6:30 AM 50.0 °F - 50.0 °F 100% 30.24 in 2.2 mi WSW 17.3 mph - N/A   Light Drizzle
7:00 AM 50.0 °F - 50.0 °F 100% 30.24 in 2.2 mi WSW 16.1 mph - N/A   Light Drizzle
7:30 AM 50.0 °F - 50.0 °F 100% 30.24 in 3.1 mi WSW 17.3 mph - N/A   Light Drizzle
8:00 AM 50.0 °F - 50.0 °F 100% 30.24 in 1.6 mi WSW 17.3 mph - N/A   Light Drizzle
8:30 AM 50.0 °F - 50.0 °F 100% 30.24 in 1.9 mi WSW 17.3 mph - N/A   Light Drizzle
9:00 AM 50.0 °F - 50.0 °F 100% 30.24 in 1.6 mi WSW 17.3 mph - N/A   Light Drizzle
9:30 AM 50.0 °F - 50.0 °F 100% 30.24 in 1.6 mi WSW 17.3 mph - N/A   Light Drizzle
10:00 AM 50.0 °F - 50.0 °F 100% 30.24 in 1.2 mi SW 13.8 mph - N/A Rain Light Rain
10:30 AM 50.0 °F - 50.0 °F 100% 30.24 in 1.2 mi SW 18.4 mph - N/A Rain Light Rain
11:00 AM 50.0 °F - 50.0 °F 100% 30.21 in 1.5 mi WSW 16.1 mph - N/A Rain Light Rain
11:30 AM 50.0 °F - 50.0 °F 100% 30.21 in 1.5 mi WSW 17.3 mph - N/A Rain Light Rain
12:00 PM 51 °F - 50 °F 97% 30.23 in 1 mi SW 17.9 mph - - Rain Light Rain
12:00 PM 50.0 °F - 50.0 °F 100% 30.21 in 1.2 mi WSW 18.4 mph - N/A Rain Light Rain
12:30 PM 50.0 °F - 50.0 °F 100% 30.21 in 1.5 mi WSW 19.6 mph - N/A Rain Light Rain
1:00 PM 50.0 °F - 50.0 °F 100% 30.21 in 1.2 mi WSW 20.7 mph - N/A Rain Light Rain
1:30 PM 51.8 °F - 50.0 °F 94% 30.18 in 1.9 mi WSW 16.1 mph - N/A Rain Light Rain
2:00 PM 51.8 °F - 50.0 °F 94% 30.18 in 1.9 mi WSW 18.4 mph - N/A Rain Light Rain
2:30 PM 51.8 °F - 50.0 °F 94% 30.15 in 1.6 mi WSW 20.7 mph - N/A Rain Light Rain
3:00 PM 51.8 °F - 50.0 °F 94% 30.15 in 1.6 mi WSW 19.6 mph - N/A Rain Light Rain
3:30 PM 50.0 °F - 50.0 °F 100% 30.15 in 2.5 mi WSW 17.3 mph - N/A   Light Drizzle
4:00 PM 50.0 °F - 48.2 °F 94% 30.12 in 1.7 mi SW 17.3 mph - N/A   Light Drizzle
4:30 PM 50.0 °F - 48.2 °F 94% 30.12 in 5.0 mi WSW 18.4 mph - N/A   Mostly Cloudy
5:00 PM 50.0 °F - 48.2 °F 94% 30.09 in 6.2 mi SW 17.3 mph - N/A   Mostly Cloudy
5:30 PM 48.2 °F - 48.2 °F 100% 30.09 in 1.9 mi WSW 23.0 mph - N/A Rain Light Rain
6:00 PM 49 °F - 48 °F 94% 30.11 in 3 mi WSW 20.1 mph - - Rain Light Drizzle
6:00 PM 48.2 °F - 48.2 °F 100% 30.09 in 3.1 mi WSW 20.7 mph - N/A   Light Drizzle
6:30 PM 48.2 °F - 46.4 °F 93% 30.09 in 6.2 mi WSW 18.4 mph - N/A   Mostly Cloudy
7:00 PM 48.2 °F - 46.4 °F 93% 30.06 in 6.2 mi SW 15.0 mph - N/A   Mostly Cloudy
7:30 PM 48.2 °F - 46.4 °F 93% 30.06 in 4.3 mi SW 17.3 mph - N/A   Light Drizzle
8:00 PM 48.2 °F - 44.6 °F 87% 30.04 in 6.2 mi SW 20.7 mph - N/A   Mostly Cloudy
8:30 PM 46.4 °F 39.8 °F 44.6 °F 93% 30.04 in 6.2 mi SW 16.1 mph - N/A   Mostly Cloudy
9:00 PM 48.2 °F - 44.6 °F 87% 30.01 in 6.2 mi SW 20.7 mph - N/A   Mostly Cloudy
9:30 PM 48.2 °F - 44.6 °F 87% 30.01 in 5.6 mi SW 17.3 mph - N/A   Light Drizzle
10:00 PM 46.4 °F 39.2 °F 46.4 °F 100% 30.01 in 6.2 mi SW 18.4 mph - N/A   Mostly Cloudy
10:30 PM 46.4 °F 37.4 °F 44.6 °F 93% 29.98 in 6.2 mi SW 28.8 mph - N/A   Mostly Cloudy
11:00 PM 46.4 °F 38.7 °F 44.6 °F 93% 29.95 in 6.2 mi SW 20.7 mph 32.2 mph N/A   Mostly Cloudy
11:30 PM 46.4 °F 40.1 °F 44.6 °F 93% 29.95 in 6.2 mi SW 15.0 mph - N/A   Mostly Cloudy